Radiation Dose at Monitoring Post of Fukushima Daini Nuclear Power Station
Date,Time,MP-1(microSv/h),MP-2(microSv/h),MP-3(microSv/h),MP-4(microSv/h),MP-5(microSv/h),MP-6(microSv/h),MP-7(microSv/h),Wind Direction,Wind Velocity(m/s),Rain
2016/01/31,00:00,0.368,0.221,0.389,0.343,0.332,0.176,0.142,north-northwest,6.4,No
2016/01/31,00:10,0.368,0.219,0.387,0.344,0.333,0.176,0.142,north,5.7,No
2016/01/31,00:20,0.369,0.221,0.389,0.343,0.332,0.176,0.141,north,5.7,No
2016/01/31,00:30,0.368,0.220,0.389,0.343,0.329,0.175,0.141,north,5.0,No
2016/01/31,00:40,0.371,0.220,0.389,0.344,0.330,0.176,0.142,north-northeast,3.8,No
2016/01/31,00:50,0.369,0.220,0.388,0.343,0.331,0.175,0.141,north-northeast,4.4,No
2016/01/31,01:00,0.369,0.220,0.389,0.344,0.333,0.175,0.141,north-northeast,3.5,No
2016/01/31,01:10,0.371,0.220,0.391,0.344,0.332,0.177,0.140,north,2.9,No
2016/01/31,01:20,0.369,0.221,0.388,0.344,0.332,0.176,0.141,north,2.1,No
2016/01/31,01:30,0.369,0.221,0.389,0.345,0.331,0.176,0.141,north-northeast,2.6,No
2016/01/31,01:40,0.369,0.221,0.390,0.344,0.332,0.176,0.142,north,4.1,No
2016/01/31,01:50,0.369,0.221,0.390,0.346,0.332,0.176,0.142,north,2.4,No
2016/01/31,02:00,0.369,0.221,0.391,0.345,0.332,0.175,0.141,north-northwest,2.6,No
2016/01/31,02:10,0.370,0.221,0.389,0.345,0.332,0.176,0.141,north-northwest,4.3,No
2016/01/31,02:20,0.369,0.220,0.389,0.344,0.330,0.176,0.141,north,4.6,No
2016/01/31,02:30,0.369,0.222,0.391,0.345,0.332,0.176,0.141,north-northwest,4.5,No
2016/01/31,02:40,0.368,0.221,0.392,0.345,0.331,0.176,0.141,north-northwest,3.2,No
2016/01/31,02:50,0.369,0.221,0.391,0.344,0.332,0.175,0.142,north-northwest,2.5,No
2016/01/31,03:00,0.369,0.220,0.388,0.345,0.332,0.176,0.141,north-northwest,3.6,No
2016/01/31,03:10,0.371,0.221,0.391,0.345,0.332,0.176,0.141,north-northwest,3.3,No
2016/01/31,03:20,0.370,0.221,0.391,0.345,0.332,0.176,0.143,north-northwest,2.2,No
2016/01/31,03:30,0.370,0.221,0.391,0.345,0.332,0.176,0.142,north-northwest,2.8,No
2016/01/31,03:40,0.370,0.220,0.391,0.344,0.333,0.176,0.142,north-northwest,2.0,No
2016/01/31,03:50,0.370,0.220,0.390,0.344,0.332,0.176,0.142,northwest,3.5,No
2016/01/31,04:00,0.370,0.220,0.392,0.344,0.330,0.176,0.141,northwest,2.0,No
2016/01/31,04:10,0.370,0.221,0.390,0.344,0.331,0.175,0.141,northwest,1.5,No
2016/01/31,04:20,0.371,0.221,0.391,0.343,0.331,0.177,0.142,west-northwest,0.7,No
2016/01/31,04:30,0.371,0.220,0.390,0.343,0.334,0.175,0.142,northwest,0.7,No
2016/01/31,04:40,0.371,0.221,0.389,0.343,0.331,0.177,0.140,northwest,1.7,No
2016/01/31,04:50,0.371,0.221,0.391,0.344,0.331,0.177,0.142,northwest,1.3,No
2016/01/31,05:00,0.369,0.221,0.393,0.345,0.332,0.176,0.142,north-northwest,2.1,No
2016/01/31,05:10,0.371,0.221,0.391,0.344,0.333,0.177,0.141,northwest,1.8,No
2016/01/31,05:20,0.371,0.221,0.390,0.345,0.332,0.176,0.141,north-northwest,2.3,No
2016/01/31,05:30,0.372,0.222,0.391,0.345,0.331,0.176,0.142,north-northwest,2.4,No
2016/01/31,05:40,0.371,0.221,0.392,0.346,0.333,0.176,0.141,north-northwest,2.2,No
2016/01/31,05:50,0.371,0.220,0.392,0.344,0.333,0.177,0.142,north-northwest,2.5,No
2016/01/31,06:00,0.371,0.221,0.390,0.345,0.333,0.176,0.142,north-northwest,2.2,No
2016/01/31,06:10,0.372,0.221,0.392,0.345,0.332,0.176,0.141,north-northwest,1.1,No
2016/01/31,06:20,0.371,0.221,0.392,0.347,0.332,0.177,0.141,-,CALM,No
2016/01/31,06:30,0.372,0.222,0.392,0.345,0.332,0.177,0.141,-,CALM,No
2016/01/31,06:40,0.371,0.221,0.392,0.345,0.334,0.175,0.142,-,CALM,No
2016/01/31,06:50,0.373,0.221,0.391,0.345,0.334,0.176,0.142,north,0.6,No
2016/01/31,07:00,0.374,0.222,0.392,0.346,0.333,0.178,0.142,north-northwest,1.2,No
2016/01/31,07:10,0.373,0.222,0.394,0.347,0.332,0.176,0.142,north-northwest,1.0,No
2016/01/31,07:20,0.371,0.222,0.391,0.346,0.333,0.177,0.142,-,CALM,No
2016/01/31,07:30,0.372,0.222,0.391,0.346,0.333,0.176,0.142,-,CALM,No
2016/01/31,07:40,0.371,0.221,0.391,0.345,0.334,0.176,0.142,south-southwest,1.2,No
2016/01/31,07:50,0.371,0.222,0.393,0.346,0.332,0.176,0.142,south-southwest,1.0,No
2016/01/31,08:00,0.372,0.221,0.391,0.346,0.332,0.177,0.142,-,CALM,No
2016/01/31,08:10,0.371,0.222,0.392,0.346,0.333,0.177,0.142,-,CALM,No
2016/01/31,08:20,0.371,0.221,0.391,0.345,0.334,0.176,0.142,-,CALM,No
2016/01/31,08:30,0.372,0.221,0.392,0.347,0.333,0.177,0.142,-,CALM,No
2016/01/31,08:40,0.373,0.220,0.395,0.346,0.331,0.177,0.142,west-southwest,0.6,No
2016/01/31,08:50,0.372,0.222,0.393,0.345,0.332,0.176,0.142,southwest,1.4,No
2016/01/31,09:00,0.371,0.222,0.392,0.346,0.332,0.175,0.142,south-southwest,1.1,No
2016/01/31,09:10,0.374,0.223,0.393,0.346,0.333,0.176,0.141,west-southwest,1.2,No
2016/01/31,09:20,0.371,0.221,0.395,0.343,0.332,0.177,0.141,west-southwest,1.5,No
2016/01/31,09:30,0.371,0.222,0.393,0.345,0.333,0.175,0.142,south-southeast,0.9,No
2016/01/31,09:40,0.373,0.222,0.391,0.345,0.333,0.176,0.142,south-southeast,0.9,No
2016/01/31,09:50,0.372,0.220,0.392,0.346,0.332,0.176,0.143,-,CALM,No
2016/01/31,10:00,0.372,0.221,0.393,0.348,0.334,0.176,0.143,east,1.1,No
2016/01/31,10:10,0.372,0.221,0.392,0.346,0.334,0.177,0.141,northeast,0.7,No
2016/01/31,10:20,0.372,0.221,0.392,0.346,0.333,0.176,0.143,east-southeast,1.8,No
2016/01/31,10:30,0.373,0.222,0.393,0.348,0.335,0.175,0.142,south-southeast,1.3,No
2016/01/31,10:40,0.374,0.221,0.392,0.346,0.333,0.175,0.141,south-southwest,1.2,No
2016/01/31,10:50,0.372,0.221,0.393,0.347,0.332,0.177,0.141,south,1.4,No
2016/01/31,11:00,0.374,0.222,0.393,0.348,0.335,0.176,0.143,south-southwest,2.0,No
2016/01/31,11:10,0.373,0.223,0.393,0.346,0.334,0.176,0.143,south-southeast,3.2,No
2016/01/31,11:20,0.375,0.222,0.391,0.346,0.333,0.177,0.143,south-southeast,3.0,No
2016/01/31,11:30,0.375,0.222,0.395,0.347,0.334,0.177,0.143,southeast,1.9,No
2016/01/31,11:40,0.374,0.222,0.392,0.346,0.334,0.177,0.143,south-southeast,1.8,No
2016/01/31,11:50,0.373,0.221,0.392,0.347,0.334,0.176,0.143,south-southeast,1.4,No
2016/01/31,12:00,0.374,0.222,0.393,0.347,0.334,0.176,0.143,south,2.6,No
2016/01/31,12:10,0.373,0.223,0.393,0.348,0.332,0.177,0.143,south-southeast,1.2,No
2016/01/31,12:20,0.373,0.220,0.394,0.349,0.336,0.176,0.144,east-southeast,1.1,No
2016/01/31,12:30,0.374,0.222,0.393,0.347,0.332,0.176,0.145,northeast,2.2,No
2016/01/31,12:40,0.374,0.220,0.393,0.350,0.338,0.177,0.145,north,1.5,No
2016/01/31,12:50,0.376,0.222,0.393,0.347,0.334,0.178,0.146,north-northwest,0.9,No
2016/01/31,13:00,0.373,0.222,0.394,0.349,0.337,0.178,0.147,east-southeast,0.9,No
2016/01/31,13:10,0.375,0.222,0.394,0.347,0.335,0.179,0.147,north,2.0,No
2016/01/31,13:20,0.374,0.223,0.394,0.350,0.339,0.179,0.148,north,2.8,No
2016/01/31,13:30,0.377,0.222,0.397,0.351,0.340,0.179,0.148,west-northwest,5.1,No
2016/01/31,13:40,0.377,0.224,0.395,0.351,0.338,0.180,0.149,west-northwest,8.7,No
2016/01/31,13:50,0.377,0.223,0.399,0.353,0.340,0.180,0.151,west,10.1,Yes
2016/01/31,14:00,0.382,0.224,0.397,0.352,0.338,0.180,0.152,west-northwest,9.8,No
2016/01/31,14:10,0.378,0.224,0.403,0.353,0.341,0.180,0.152,west-northwest,7.8,No
2016/01/31,14:20,0.379,0.225,0.401,0.353,0.340,0.182,0.152,west-northwest,10.0,No
2016/01/31,14:30,0.383,0.225,0.401,0.355,0.340,0.180,0.152,west-northwest,7.7,No
2016/01/31,14:40,0.382,0.225,0.402,0.357,0.341,0.182,0.153,west-northwest,5.7,No
2016/01/31,14:50,0.381,0.226,0.405,0.355,0.343,0.183,0.153,west-northwest,4.3,No
2016/01/31,15:00,0.384,0.226,0.401,0.358,0.342,0.181,0.154,west-northwest,6.4,No
2016/01/31,15:10,0.383,0.226,0.403,0.357,0.342,0.183,0.155,west-northwest,4.2,No
2016/01/31,15:20,0.382,0.226,0.406,0.357,0.342,0.183,0.156,northwest,3.3,No
2016/01/31,15:30,0.385,0.228,0.404,0.358,0.341,0.184,0.156,northwest,5.0,No
2016/01/31,15:40,0.384,0.228,0.406,0.359,0.341,0.183,0.157,west-northwest,3.9,No
2016/01/31,15:50,0.383,0.227,0.406,0.356,0.343,0.184,0.158,west-northwest,5.7,No
2016/01/31,16:00,0.385,0.227,0.404,0.357,0.342,0.185,0.157,west-northwest,5.7,No
2016/01/31,16:10,0.386,0.228,0.406,0.361,0.342,0.185,0.157,west-northwest,3.9,No
2016/01/31,16:20,0.384,0.228,0.407,0.358,0.344,0.185,0.157,west-northwest,4.1,No
2016/01/31,16:30,0.384,0.228,0.406,0.357,0.342,0.186,0.157,west,4.0,No
2016/01/31,16:40,0.385,0.229,0.407,0.361,0.342,0.186,0.158,west,4.4,No
2016/01/31,16:50,0.385,0.228,0.407,0.359,0.346,0.185,0.158,west-northwest,3.4,No
2016/01/31,17:00,0.384,0.228,0.405,0.359,0.344,0.186,0.158,west,2.2,No
2016/01/31,17:10,0.385,0.228,0.405,0.361,0.343,0.187,0.158,west-northwest,3.2,No
2016/01/31,17:20,0.386,0.228,0.409,0.360,0.344,0.186,0.159,west-northwest,3.9,No
2016/01/31,17:30,0.386,0.230,0.407,0.362,0.345,0.187,0.158,west-northwest,3.1,No
2016/01/31,17:40,0.387,0.228,0.408,0.360,0.344,0.187,0.158,west-northwest,2.6,No
2016/01/31,17:50,0.387,0.230,0.408,0.361,0.344,0.186,0.158,northwest,2.6,No
2016/01/31,18:00,0.385,0.227,0.410,0.362,0.343,0.187,0.158,west-northwest,3.1,No
2016/01/31,18:10,0.386,0.231,0.408,0.362,0.345,0.187,0.158,west,2.0,No
2016/01/31,18:20,0.387,0.230,0.409,0.362,0.345,0.187,0.159,northwest,2.4,No
2016/01/31,18:30,0.386,0.228,0.409,0.363,0.344,0.187,0.159,northwest,3.0,No
2016/01/31,18:40,0.387,0.229,0.410,0.360,0.344,0.188,0.159,west-northwest,3.5,No
2016/01/31,18:50,0.386,0.229,0.410,0.361,0.345,0.188,0.158,northwest,4.7,No
2016/01/31,19:00,0.387,0.230,0.411,0.362,0.344,0.187,0.160,northwest,3.6,No
2016/01/31,19:10,0.389,0.230,0.409,0.361,0.344,0.188,0.159,north-northwest,3.2,No
2016/01/31,19:20,0.387,0.230,0.411,0.363,0.344,0.187,0.160,northwest,3.8,No
2016/01/31,19:30,0.387,0.229,0.410,0.360,0.345,0.187,0.159,north-northwest,4.2,No
2016/01/31,19:40,0.387,0.229,0.410,0.361,0.345,0.187,0.159,north-northwest,4.4,No
2016/01/31,19:50,0.388,0.230,0.412,0.363,0.345,0.188,0.159,north-northwest,3.6,No
2016/01/31,20:00,0.387,0.230,0.411,0.362,0.345,0.188,0.160,north,4.1,No
2016/01/31,20:10,0.388,0.231,0.410,0.362,0.345,0.189,0.160,north,4.3,No
2016/01/31,20:20,0.389,0.229,0.410,0.363,0.345,0.187,0.159,north,4.8,No
2016/01/31,20:30,0.389,0.231,0.413,0.364,0.346,0.188,0.160,north,3.9,No
2016/01/31,20:40,0.391,0.230,0.410,0.363,0.344,0.188,0.160,north,5.5,No
2016/01/31,20:50,0.389,0.230,0.410,0.362,0.346,0.188,0.159,north,6.0,No
2016/01/31,21:00,0.389,0.230,0.413,0.362,0.347,0.188,0.160,north,6.5,No
2016/01/31,21:10,0.390,0.229,0.412,0.364,0.347,0.188,0.160,north,5.3,No
2016/01/31,21:20,0.390,0.231,0.411,0.365,0.346,0.188,0.159,north,3.4,No
2016/01/31,21:30,0.390,0.231,0.410,0.364,0.346,0.188,0.159,north-northeast,4.3,No
2016/01/31,21:40,0.392,0.231,0.414,0.365,0.347,0.189,0.160,north-northeast,4.0,No
2016/01/31,21:50,0.390,0.229,0.412,0.365,0.346,0.188,0.159,north-northeast,4.3,No
2016/01/31,22:00,0.389,0.230,0.412,0.363,0.347,0.189,0.160,north-northeast,3.3,No
2016/01/31,22:10,0.389,0.230,0.412,0.365,0.346,0.189,0.160,north,3.9,No
2016/01/31,22:20,0.390,0.231,0.413,0.364,0.347,0.189,0.160,north,4.7,No
2016/01/31,22:30,0.388,0.230,0.413,0.364,0.346,0.189,0.160,north-northwest,5.1,No
2016/01/31,22:40,0.390,0.232,0.412,0.364,0.345,0.189,0.160,north,5.5,No
2016/01/31,22:50,0.391,0.231,0.414,0.366,0.346,0.189,0.161,north,4.6,No
2016/01/31,23:00,0.391,0.230,0.414,0.367,0.347,0.188,0.160,north,6.2,Yes
2016/01/31,23:10,0.390,0.231,0.411,0.364,0.347,0.189,0.161,north,5.0,Yes
2016/01/31,23:20,0.390,0.230,0.412,0.365,0.347,0.189,0.161,north,4.7,No
2016/01/31,23:30,0.392,0.231,0.414,0.364,0.346,0.189,0.161,north-northeast,5.2,No
2016/01/31,23:40,0.391,0.231,0.413,0.367,0.348,0.190,0.160,north,4.7,Yes
2016/01/31,23:50,0.391,0.232,0.413,0.367,0.347,0.189,0.161,north,5.8,No
